Sacramento, CA

3:22 PM PST on January 20, 2018 (GMT -0800)
Sacramento Executive

Weather History for KSAC - August, 2012

Change the Weather History Date:

Monday, August 13, 2012

  Actual Average Record
Temperature  
Mean Temperature 84 °F -  
Max Temperature 104 °F 92 °F 109 °F (1996)
Min Temperature 63 °F 58 °F 52 °F (1952)
Degree Days  
Heating Degree Days 0    
Month to date heating degree days 0  
Since 1 June heating degree days 18  
Cooling Degree Days 19    
Month to date cooling degree days 173  
Year to date cooling degree days 829  
Since 1 June cooling degree days 689  
Growing Degree Days 34 (Base 50)    
Moisture  
Dew Point 49 °F    
Average Humidity 41    
Maximum Humidity 67    
Minimum Humidity 14    
Precipitation  
Precipitation 0.00 in 0.00 in 0.00 in (2018)
Month to date precipitation T 0.01  
Year to date precipitation 9.89 11.91  
Since 1 July precipitation 0.03  
Sea Level Pressure  
Sea Level Pressure 29.75 in    
Wind  
Wind Speed 3 mph (SW)    
Max Wind Speed 8 mph    
Max Gust Speed 17 mph    
Visibility 9 miles    
Events      
T = Trace of Precipitation, MM = Missing Value Source: NWS Daily Summary

Daily Weather History Graph

Daily Weather History Graph

Search for Another Location

Airport or City:

Trip Planner

Search our weather history database for the weather conditions in past years. The results will help you decide how hot, cold, wet, or windy it might be!

Date:

Astronomy

Aug. 13, 2012 Rise Set
Actual Time 6:18 AM PDT 8:01 PM PDT
Civil Twilight 5:50 AM PDT 8:30 PM PDT
Nautical Twilight 5:16 AM PDT 9:04 PM PDT
Astronomical Twilight 4:39 AM PDT 9:40 PM PDT
Moon 2:28 AM PDT (8/13) 5:16 PM PDT (8/13)
Length of Visible Light 14h 39m
Length of Day
13h 42m
Waning Crescent, 15% of the Moon is Illuminated
Aug 13
Waning Crescent
Aug 17
New
Aug 24
First Quarter
Aug 31
Full
Sep 8
Last Quarter

Hourly Weather History & Observations

Time (PDT) Temp. Dew Point Humidity Pressure Visibility Wind Dir Wind Speed Gust Speed Precip Events Conditions
12:53 AM 72.0 °F 46.0 °F 40% 29.76 in 10.0 mi Calm Calm - N/A   Clear
1:53 AM 73.0 °F 46.0 °F 38% 29.75 in 10.0 mi South 3.5 mph - N/A   Clear
2:53 AM 71.1 °F 48.0 °F 44% 29.75 in 10.0 mi South 3.5 mph - N/A   Clear
3:53 AM 69.1 °F 48.9 °F 49% 29.75 in 10.0 mi Calm Calm - N/A   Clear
4:53 AM 66.9 °F 50.0 °F 54% 29.75 in 10.0 mi South 4.6 mph - N/A   Clear
5:53 AM 64.0 °F 51.1 °F 63% 29.76 in 10.0 mi Calm Calm - N/A   Clear
6:53 AM 64.0 °F 53.1 °F 67% 29.79 in 10.0 mi Calm Calm - N/A   Clear
7:53 AM 66.9 °F 53.1 °F 61% 29.80 in 10.0 mi Calm Calm - N/A   Clear
8:53 AM 72.0 °F 53.1 °F 51% 29.81 in 10.0 mi Calm Calm - N/A   Clear
9:53 AM 79.0 °F 52.0 °F 39% 29.81 in 10.0 mi Calm Calm - N/A   Clear
10:53 AM 86.0 °F 48.9 °F 28% 29.80 in 10.0 mi Calm Calm - N/A   Clear
11:53 AM 91.0 °F 52.0 °F 26% 29.79 in 10.0 mi West 4.6 mph - N/A   Clear
12:53 PM 96.1 °F 51.1 °F 22% 29.77 in 10.0 mi West 4.6 mph - N/A   Clear
1:53 PM 99.0 °F 48.9 °F 18% 29.75 in 10.0 mi NW 5.8 mph - N/A   Clear
2:53 PM 102.0 °F 45.0 °F 14% 29.73 in 10.0 mi NW 4.6 mph - N/A   Clear
3:53 PM 102.9 °F 44.1 °F 14% 29.71 in 10.0 mi West 3.5 mph - N/A   Clear
4:53 PM 104.0 °F 50.0 °F 16% 29.70 in 10.0 mi SW 6.9 mph - N/A   Clear
5:53 PM 100.9 °F 48.0 °F 17% 29.70 in 10.0 mi SSW 5.8 mph - N/A   Clear
6:53 PM 97.0 °F 42.1 °F 15% 29.70 in 10.0 mi SSW 6.9 mph - N/A   Clear
7:53 PM 91.9 °F 48.0 °F 22% 29.70 in 3.0 mi SW 8.1 mph - N/A   Haze
8:53 PM 86.0 °F 51.1 °F 30% 29.69 in 5.0 mi SW 9.2 mph - N/A   Haze
9:53 PM 82.0 °F 48.9 °F 31% 29.70 in 5.0 mi SW 5.8 mph - N/A   Haze
10:53 PM 79.0 °F 48.0 °F 34% 29.71 in 10.0 mi ESE 3.5 mph - N/A   Clear
11:53 PM 78.1 °F 46.0 °F 32% 29.71 in 10.0 mi South 3.5 mph - N/A   Clear